When you browse on this site, cookies collect data to enhance your experience and personalize the content and advertising you see.
Visit our Privacy Policy to learn more. By continuing to use the site, you agree to this use of cookies and data.
  • In Schweiz
  • Länderverzeichnis
  • Für 7 Tage
  • Wassertemperatur
  • Satellitenkarten
  • Wetterkarte
  • Widgets
  • user-avatar
    Anmelden

    Stündliche Wetter Brusenoe

    Heute, 25 Juni, Dienstag

    Zeit Temperatur Niederschläge Wind Luftdruck Luftfeuchtigkeit
    00:00 +16°C° 0 mm 3 m/S 749 mmHg 77%
    01:00 +16°C° 0 mm 3 m/S 749 mmHg 77%
    02:00 +14°C° 0 mm 3 m/S 749 mmHg 78%
    03:00 +14°C° 0 mm 3 m/S 750 mmHg 78%
    04:00 +14°C° 0 mm 3 m/S 750 mmHg 79%
    05:00 +14°C° 0 mm 3 m/S 750 mmHg 80%
    06:00 +14°C° 0 mm 3 m/S 751 mmHg 81%
    07:00 +17°C° 0 mm 3 m/S 751 mmHg 76%
    08:00 +18°C° 0 mm 4 m/S 751 mmHg 70%
    09:00 +20°C° 0 mm 4 m/S 752 mmHg 66%
    10:00 +20°C° 0 mm 4 m/S 752 mmHg 63%
    11:00 +21°C° 0 mm 4 m/S 752 mmHg 59%
    12:00 +22°C° 0 mm 4 m/S 752 mmHg 55%
    13:00 +22°C° 0 mm 4 m/S 752 mmHg 56%
    14:00 +22°C° 0 mm 4 m/S 752 mmHg 56%
    15:00 +22°C° 0 mm 4 m/S 752 mmHg 57%
    16:00 +22°C° 0 mm 4 m/S 752 mmHg 60%
    17:00 +21°C° 0 mm 4 m/S 752 mmHg 63%
    18:00 +21°C° 0 mm 3 m/S 751 mmHg 66%
    19:00 +19°C° 0 mm 3 m/S 752 mmHg 68%
    20:00 +17°C° 0 mm 2 m/S 752 mmHg 69%
    21:00 +16°C° 0 mm 2 m/S 752 mmHg 71%
    22:00 +15°C° 0 mm 2 m/S 752 mmHg 71%
    23:00 +15°C° 0 mm 1 m/S 752 mmHg 72%

    Morgen, 26 Juni, Mittwoch

    Zeit Temperatur Niederschläge Wind Luftdruck Luftfeuchtigkeit
    00:00 +14°C° 0 mm 1 m/S 751 mmHg 73%
    01:00 +14°C° 0 mm 1 m/S 752 mmHg 73%
    02:00 +13°C° 0 mm 1 m/S 752 mmHg 73%
    03:00 +13°C° 0 mm 1 m/S 752 mmHg 74%
    04:00 +14°C° 0 mm 1 m/S 752 mmHg 75%
    05:00 +14°C° 0 mm 1 m/S 752 mmHg 77%
    06:00 +15°C° 0 mm 1 m/S 752 mmHg 79%
    07:00 +16°C° 0 mm 2 m/S 752 mmHg 75%
    08:00 +18°C° 0 mm 2 m/S 752 mmHg 71%
    09:00 +19°C° 0 mm 2 m/S 752 mmHg 66%
    10:00 +20°C° 0 mm 2 m/S 751 mmHg 62%
    11:00 +21°C° 0 mm 2 m/S 751 mmHg 57%
    12:00 +23°C° 0 mm 2 m/S 751 mmHg 52%
    13:00 +23°C° 0 mm 2 m/S 750 mmHg 53%
    14:00 +22°C° 0 mm 3 m/S 750 mmHg 54%
    15:00 +24°C° 0 mm 3 m/S 750 mmHg 54%
    16:00 +23°C° 0.2 mm 2 m/S 749 mmHg 61%
    17:00 +21°C° 0.2 mm 2 m/S 748 mmHg 68%
    18:00 +22°C° 0.2 mm 1 m/S 748 mmHg 75%
    19:00 +20°C° 0.1 mm 1 m/S 747 mmHg 77%
    20:00 +18°C° 0.1 mm 2 m/S 747 mmHg 79%
    21:00 +17°C° 0.1 mm 2 m/S 747 mmHg 82%
    22:00 +17°C° 0 mm 2 m/S 746 mmHg 84%
    23:00 +16°C° 0 mm 2 m/S 746 mmHg 87%

    übermorgen, 27 Juni, Donnerstag

    Zeit Temperatur Niederschläge Wind Luftdruck Luftfeuchtigkeit
    00:00 +16°C° 0 mm 3 m/S 745 mmHg 90%
    01:00 +16°C° 0 mm 3 m/S 744 mmHg 90%
    02:00 +14°C° 0 mm 3 m/S 744 mmHg 91%
    03:00 +14°C° 0 mm 3 m/S 743 mmHg 92%
    04:00 +14°C° 0.2 mm 4 m/S 742 mmHg 91%
    05:00 +15°C° 0.2 mm 4 m/S 741 mmHg 91%
    06:00 +15°C° 0.2 mm 4 m/S 740 mmHg 91%
    07:00 +15°C° 2.2 mm 5 m/S 740 mmHg 92%
    08:00 +16°C° 2.2 mm 5 m/S 739 mmHg 94%
    09:00 +16°C° 2.2 mm 6 m/S 738 mmHg 95%
    10:00 +17°C° 1 mm 6 m/S 737 mmHg 95%
    11:00 +17°C° 1 mm 6 m/S 736 mmHg 94%
    12:00 +19°C° 1 mm 6 m/S 736 mmHg 93%
    13:00 +18°C° 1.8 mm 7 m/S 735 mmHg 92%
    14:00 +20°C° 1.8 mm 7 m/S 735 mmHg 92%
    15:00 +20°C° 1.8 mm 8 m/S 734 mmHg 92%
    16:00 +20°C° 0.1 mm 7 m/S 733 mmHg 90%
    17:00 +21°C° 0.1 mm 7 m/S 733 mmHg 89%
    18:00 +21°C° 0.1 mm 6 m/S 732 mmHg 88%
    19:00 +20°C° 0.6 mm 6 m/S 731 mmHg 90%
    20:00 +20°C° 0.6 mm 6 m/S 730 mmHg 92%
    21:00 +20°C° 0.6 mm 5 m/S 730 mmHg 94%
    22:00 +19°C° 2.7 mm 4 m/S 729 mmHg 94%
    23:00 +19°C° 2.7 mm 4 m/S 728 mmHg 94%

    28 Juni, Freitag

    Zeit Temperatur Niederschläge Wind Luftdruck Luftfeuchtigkeit
    00:00 +19°C° 2.7 mm 3 m/S 728 mmHg 95%
    01:00 +18°C° 0.1 mm 4 m/S 727 mmHg 95%
    02:00 +17°C° 0.1 mm 5 m/S 727 mmHg 95%
    03:00 +17°C° 0.1 mm 5 m/S 727 mmHg 96%
    04:00 +16°C° 0 mm 6 m/S 727 mmHg 95%
    05:00 +15°C° 0 mm 6 m/S 727 mmHg 94%
    06:00 +15°C° 0 mm 6 m/S 726 mmHg 93%
    07:00 +15°C° 0 mm 6 m/S 726 mmHg 90%
    08:00 +15°C° 0 mm 6 m/S 726 mmHg 87%
    09:00 +15°C° 0 mm 7 m/S 726 mmHg 84%
    10:00 +15°C° 0.1 mm 7 m/S 726 mmHg 84%
    11:00 +15°C° 0.1 mm 7 m/S 726 mmHg 83%
    12:00 +15°C° 0.1 mm 7 m/S 726 mmHg 83%
    13:00 +16°C° 0.1 mm 7 m/S 726 mmHg 81%
    14:00 +16°C° 0.1 mm 7 m/S 726 mmHg 79%
    15:00 +17°C° 0.1 mm 7 m/S 726 mmHg 77%
    16:00 +16°C° 0.5 mm 7 m/S 726 mmHg 82%
    17:00 +15°C° 0.5 mm 6 m/S 726 mmHg 87%
    18:00 +14°C° 0.5 mm 6 m/S 726 mmHg 91%
    19:00 +13°C° 0.1 mm 6 m/S 726 mmHg 92%
    20:00 +13°C° 0.1 mm 5 m/S 726 mmHg 93%
    21:00 +12°C° 0.1 mm 5 m/S 726 mmHg 94%
    22:00 +12°C° 0.1 mm 5 m/S 726 mmHg 94%
    23:00 +10°C° 0.1 mm 5 m/S 726 mmHg 94%

    29 Juni, Samstag

    Zeit Temperatur Niederschläge Wind Luftdruck Luftfeuchtigkeit
    00:00 +10°C° 0.1 mm 5 m/S 726 mmHg 94%
    01:00 +10°C° 0.5 mm 6 m/S 726 mmHg 94%
    02:00 +10°C° 0.5 mm 6 m/S 726 mmHg 95%
    03:00 +10°C° 0.5 mm 6 m/S 726 mmHg 95%
    04:00 +10°C° 0.3 mm 6 m/S 726 mmHg 95%
    05:00 +10°C° 0.3 mm 6 m/S 727 mmHg 95%
    06:00 +10°C° 0.3 mm 6 m/S 727 mmHg 95%
    07:00 +10°C° 0.4 mm 6 m/S 728 mmHg 94%
    08:00 +10°C° 0.4 mm 6 m/S 728 mmHg 94%
    09:00 +10°C° 0.4 mm 7 m/S 729 mmHg 94%
    10:00 +10°C° 0.3 mm 6 m/S 730 mmHg 93%
    11:00 +10°C° 0.3 mm 6 m/S 730 mmHg 93%
    12:00 +10°C° 0.3 mm 6 m/S 731 mmHg 92%
    13:00 +10°C° 0.1 mm 6 m/S 732 mmHg 92%
    14:00 +10°C° 0.1 mm 6 m/S 732 mmHg 91%
    15:00 +10°C° 0.1 mm 6 m/S 733 mmHg 91%
    16:00 +10°C° 0 mm 6 m/S 733 mmHg 89%
    17:00 +10°C° 0 mm 5 m/S 734 mmHg 87%
    18:00 +10°C° 0 mm 5 m/S 734 mmHg 85%
    19:00 +11°C° 0 mm 4 m/S 735 mmHg 83%
    20:00 +10°C° 0 mm 4 m/S 735 mmHg 81%
    21:00 +10°C° 0 mm 3 m/S 735 mmHg 79%
    22:00 +10°C° 0 mm 3 m/S 735 mmHg 82%
    23:00 +9°C° 0 mm 3 m/S 736 mmHg 85%

    30 Juni, Sonntag

    Zeit Temperatur Niederschläge Wind Luftdruck Luftfeuchtigkeit
    00:00 +9°C° 0 mm 3 m/S 736 mmHg 88%
    01:00 +9°C° 0 mm 3 m/S 736 mmHg 87%
    02:00 +9°C° 0 mm 3 m/S 736 mmHg 85%
    03:00 +9°C° 0 mm 3 m/S 736 mmHg 84%
    04:00 +9°C° 0 mm 3 m/S 736 mmHg 84%
    05:00 +9°C° 0 mm 3 m/S 737 mmHg 84%
    06:00 +10°C° 0 mm 3 m/S 737 mmHg 84%
    07:00 +10°C° 0 mm 3 m/S 737 mmHg 82%
    08:00 +11°C° 0 mm 3 m/S 737 mmHg 80%
    09:00 +12°C° 0 mm 3 m/S 737 mmHg 78%
    10:00 +13°C° 0 mm 3 m/S 738 mmHg 72%
    11:00 +14°C° 0 mm 3 m/S 738 mmHg 67%
    12:00 +17°C° 0 mm 4 m/S 738 mmHg 61%
    13:00 +17°C° 0.1 mm 4 m/S 738 mmHg 61%
    14:00 +18°C° 0.1 mm 4 m/S 738 mmHg 60%
    15:00 +18°C° 0.1 mm 4 m/S 738 mmHg 59%
    16:00 +18°C° 0.1 mm 3 m/S 739 mmHg 61%
    17:00 +18°C° 0.1 mm 3 m/S 739 mmHg 64%
    18:00 +18°C° 0.1 mm 3 m/S 739 mmHg 66%
    19:00 +16°C° 0 mm 2 m/S 739 mmHg 70%
    20:00 +15°C° 0 mm 2 m/S 739 mmHg 73%
    21:00 +13°C° 0 mm 2 m/S 739 mmHg 76%
    22:00 +12°C° 0 mm 2 m/S 739 mmHg 77%
    23:00 +12°C° 0 mm 2 m/S 740 mmHg 77%
    Mehr zeigen